This demonstration page uses our WeatherBlox Daily Observations layout. Learn more.

Left ArrowRight Arrow

Hourly Observations for February 6, 2015

Temp ( °F °C ) Dew Point ( °F °C ) Humidity (%) Winds ( mph kmh ) Pressure ( in mb ) Visibility ( mi km ) Precip ( " mm )
12:53 am 00:53 Cloudy 53 11.7 49 9.4 86 86 NNE 6 9 29.88 1012 10 16 0.00 0.00
1:53 am 01:53 Cloudy with Rain 51 10.6 50 10 96 96 NW 6 9 29.86 1011 3 5 0.10 2.54
2:53 am 02:53 Cloudy with Rain 52 11.1 51 10.6 97 97 Calm 29.83 1010 3 5 0.21 5.33
3:53 am 03:53 Cloudy with Light Rain 55 12.8 51 10.6 87 87 S 8 13 29.78 1009 10 16 0.09 2.29
4:53 am 04:53 Cloudy with Light Rain 56 13.3 50 10 81 81 SSW 16 26 29.76 1008 10 16 0.03 0.76
5:53 am 05:53 Cloudy 56 13.3 49 9.4 77 77 SSW 10 17 29.76 1008 10 16 0.01 0.25
6:53 am 06:53 Cloudy with Light Rain 54 12.2 50 10 87 87 NNE 5 7 29.74 1007 10 16 0.00 0.03
7:53 am 07:53 Cloudy with Light Rain 54 12.2 49 9.4 83 83 S 3 6 29.73 1007 10 16 0.04 1.02
8:53 am 08:53 Cloudy 53 11.7 50 10 89 89 NNW 5 7 29.75 1007 10 16 0.00 0.03
9:53 am 09:53 Cloudy with Rain 55 12.8 48 8.9 77 77 SSE 18 30 29.75 1008 4 6 0.05 1.27
10:53 am 10:53 Cloudy with Rain 55 12.8 52 11.1 90 90 SSE 26 43 29.75 1007 6 10 0.20 5.08
11:53 am 11:53 Cloudy with Light Rain 54 12.2 52 11.1 93 93 SSE 36 57 29.74 1007 10 16 0.07 1.78
12:44 pm 12:44 Cloudy with Rain 55 13 50 10 82 82 SSE 29 46 29.77 1008 8 13 0.00 0.00
12:53 pm 12:53 Cloudy with Light Rain 55 12.8 50 10 83 83 SSE 24 39 29.75 1007 10 16 0.08 2.03
1:53 pm 13:53 Cloudy with Light Rain 55 12.8 53 11.7 93 93 SSE 32 52 29.74 1007 10 16 0.09 2.29
2:53 pm 14:53 Cloudy with Rain 54 12.2 51 10.6 90 90 SSE 26 43 29.76 1008 3 5 0.07 1.78
3:53 pm 15:53 Cloudy with Light Rain 55 12.8 52 11.1 90 90 S 24 39 29.73 1007 10 16 0.02 0.51
4:28 pm 16:28 Cloudy with Light Rain 55 13 52 11 88 88 S 18 30 29.74 1007 6 10 0.00 0.00
4:53 pm 16:53 Cloudy with Rain 55 12.8 53 11.7 93 93 S 26 43 29.72 1007 6 10 0.13 3.30
5:19 pm 17:19 Cloudy with Light Rain 55 12.8 53 11.7 93 93 S 23 37 29.74 1007 10 16 0.06 1.52
5:53 pm 17:53 Cloudy with Rain 55 12.8 52 11.1 90 90 S 20 31 29.72 1007 5 8 0.11 2.79
6:00 pm 18:00 Cloudy with Light Rain 55 13 52 11 88 88 S 22 35 29.71 1006 7 11 0.00 0.00
6:53 pm 18:53 Cloudy with Light Rain 55 12.8 52 11.1 90 90 S 29 46 29.67 1005 5 8 0.06 1.52
7:53 pm 19:53 Cloudy with Light Rain 55 12.8 54 12.2 96 96 S 33 54 29.65 1004 5 8 0.07 1.78
8:53 pm 20:53 Cloudy with Light Rain 56 13.3 53 11.7 90 90 S 41 67 29.60 1003 10 16 0.08 2.03
9:53 pm 21:53 Cloudy with Light Rain 57 13.9 54 12.2 90 90 S 39 63 29.61 1003 10 16 0.02 0.51
10:53 pm 22:53 Cloudy with Light Rain 57 13.9 56 13.3 96 96 S 32 52 29.61 1003 10 16 0.07 1.78
11:53 pm 23:53 Cloudy with Light Rain 58 14.4 56 13.3 93 93 S 35 56 29.60 1003 10 16 0.00 0.03

Powered by AerisWeather